Weather in Zhigansk

Russia / Sakha (Yakutia) Republic     66°46′03″N   123°22′27″E
temp.,
°C
wind,
m/s
gust,
m/s
humid.,
%
clouds,
%
prec.,
mm/h
press.,
hPa
HPBL,
m
14 april, wed
wed1400:00−9sse81593100 0.0 1009286
03:00−10sse91693100 0.0 1008317
06:00−9sse91693100 0.0 1008401
09:00−8sse101692100 0.0 1008567
12:00−6sse101387100 0.0 1007677
15:00−5sse91183100 0.1 1007921
18:00−5sse71188100 0.1 1006480
21:00−8sse51091100 0.1 1006167
15 april, thu
thu1500:00−8se5993100 0.0 1005193
03:00−9se4891100 0.1 1004150
06:00−10se4990100 0.0 1004166
09:00−8sse5988100 0.1 1004314
12:00−6sse5790100 0.3 1004466
15:00−4sse5690100 0.5 1004541
18:00−4sse569497 0.3 1004353
21:00−9sse449889 0.3 100435
16 april, fri
fri1600:00−9s459577 0.1 100458
03:00−13ssw339454 0.1 100420
06:00−16s449738 0.0 100334
09:00−10sse699686 0.0 1002224
12:00−5sse9119499 0.1 999555
15:00−2sse10138399 0.4 9961232
18:00−2sse101586100 0.2 993878
21:00−3se121895100 0.6 989819
17 april, sat
sat1700:00−3se132096100 1.6 9841014
03:00−3se132096100 4.4 9791062
06:00−5wsw5108770 3.7 979455
09:00−7ssw7108523 3.7 981512
12:00−5ssw7882100 0.1 9821009
15:00−4ssw6774100 0.3 9831086
18:00−5ssw4585100 0.3 984629
21:00−9sw2296100 0.6 98720
18 april, sun
sun1800:00−10sw1197100 0.4 98910
03:00−11wnw119793 0.5 99210
06:00−14nw119885 0.0 9969
09:00−9nw339090 0.1 1000226
12:00−7nnw4484100 0.1 1004655
15:00−7nw4481100 0.3 1008783
18:00−7nw4580100 0.1 1011606
21:00−11wnw448887 0.1 101429